Volver al catálogo

ARIANE 1 DEB

ActivoGTO
NORAD 19857·DEBRIS·🇫🇷 France

Lanzado Jul 2, 1985 desde Guiana Space Centre

Loading…

TLE

EnvejeciendoSource: Space-Track

Época: Sep 14, 2026, 12:55 UTC

1 19857U 85056P   26257.53822405  .00000847  00000-0  16927-1 0  9990
2 19857   7.0544 333.7305 7111172 217.6884 135.6704  2.29698623 99812

Sigue ARIANE 1 DEB en tiempo real con AllMySat

Download on the App Store